SL-8 R/B

Satellite information

Favourite Embed

Satellite Type and Status

ROCKET BODYIN ORBIT

Key statistics

Satellite SL-8 R/B at a glance.

Uptime

15742

Days in orbit

Revolutions

≈ 14.4

Per day

Orbit

LEO

Low Earth Orbit

Inclination

74.0

Latest

Satellite identification and parameters

Extended collection of information and parameters for SL-8 R/B.

Object identification

Identified? True

Debris? False

Object name: SL-8 R/B

International designator: 1982-051B

Object number (NORAD): 13242

Object ID (CCSDS): 13242

Country: COMMONWEALTH OF INDEPENDENT STATES (CIS)

Current information (Y/N): Y

RCS size: LARGE

Orbital parameters

Period: 100.196 minutes

Inclination: 74.044 deg

SMA: 7145.979 km

Apoapsis: 785.517 km

Periapsis: 750.171 km

RAAN: 353.3336 deg

Eccentricy: 0.0024731

Argument of periapsis: 193.3506 deg

Mean anomaly: 166.6997 deg

Mean motion: 14.37176619 rev/day

Mean motion (dot): 0.00000201 rev/day2

B* drag term: 0.000076152 1/REarth

Two-line elements (TLE)

Creation date: July 6, 2025, 10:46 p.m.

Reference frame: TEME

Reference center: EARTH

Epoch: July 6, 2025, 9:11 p.m. UTC

TLE line 0: 0 SL-8 R/B

TLE line 1: 1 13242U 82051B 25187.88294110 .00000201 00000-0 76152-4 0 9992

TLE line 2: 2 13242 74.0440 353.3336 0024731 193.3506 166.6997 14.37176619255936

Live tracking on map

Real-time ground track for satellite SL-8 R/B.

In-orbit conjunctions

A list of the most updated potential collisions computed for object SL-8 R/B.

Target Orbit TCA Probability of collision Miss distance Type
YAOGAN 4 DEB SSO 2025-06-14 09:35:46 0.0006699953 90.0 (m) DEBRIS
NOAA 16 DEB SSO 2025-03-31 08:06:23 0.0001107698 659.0 (m) DEBRIS
FENGYUN 1C DEB SSO 2025-02-12 18:28:39 0.0003203485 328.0 (m) DEBRIS
FENGYUN 1C DEB SSO 2024-11-15 17:04:39 0.0002805767 803.0 (m) DEBRIS
METEOR 2-5 DEB LEO 2024-11-15 03:15:27 0.0001294032 405.0 (m) DEBRIS

Associated space launch

Military communications satellite

SL-8 R/B was lifted into orbit during the mission ‘Kosmos-3M | Strela-2M 28’, on board a Kosmos-3M space rocket.

The launch took place on June 1, 1982, 4:37 a.m. from 132/1 (132L).

For more information about the launch, click the button.

Launch to space Kosmos-3M | Strela-2M 28
Kosmos-3M | Strela-2M 28

Agency: N/A

Status: Launch Successful

Launch date: June 1, 1982, 4:37 a.m. UTC

Rocket: Kosmos-3M

Launch pad: 132/1 (132L)

Location: Plesetsk Cosmodrome, Russian Federation

...

Latest news about this satellite

There are no fresh news available about this satellite. Check back as we update our databases every day.


Newsletter sign-up

Weekly statistics, charts and insights to help you stay on top of the space industry.